Location: Gloden
(48.4833°N, 15.3167°E)
Time: 02:12:50
(UTC+00:00)

ITUPSAT 1 - Pass Details

Date: 12 May 2021
Orbit: 700 x 713 km, 98.6° (Epoch: 24 June)

Event Time Altitude Azimuth Distance (km) Brightness Sun altitude
Rises 19:24:43 0° 5° (N) 3,120 ? -8.4°
Reaches altitude 10° 19:27:16 10° 354° (N) 2,194 ? -8.7°
Maximum altitude 19:31:16 27° 297° (WNW) 1,342 ? -9.2°
Drops below altitude 10° 19:35:15 10° 241° (WSW) 2,174 ? -9.7°
Sets 19:37:45 0° 229° (SW) 3,086 ? -10.0°
